This is the latest recevied weather packets stored in our database for station/object N5SRF. If no packets are shown the sender has not sent any weather packets the latest 1 day(s).
| Time | Temp. | Humidity | Pressure | Rain* | Wind** | Luminosity | Snow |
|---|---|---|---|---|---|---|---|
| 1778014110 | 28.89° C | 79% | 1011.6 hPa | 0 mm | 1.34 m/s, 192° | 444 W/m² | - |
| 1778013808 | 28.89° C | 79% | 1011.8 hPa | 0 mm | 2.68 m/s, 143° | 311 W/m² | - |
| 1778013505 | 28.89° C | 78% | 1011.9 hPa | 0 mm | 2.24 m/s, 157° | 304 W/m² | - |
| 1778013201 | 28.89° C | 79% | 1011.7 hPa | 0 mm | 0 m/s | 263 W/m² | - |
| 1778012898 | 28.89° C | 80% | 1012 hPa | 0 mm | 1.79 m/s, 179° | 776 W/m² | - |
| 1778012594 | 29.44° C | 78% | 1012.1 hPa | 0 mm | 0 m/s | 205 W/m² | - |
| 1778012291 | 28.89° C | 78% | 1012 hPa | 0 mm | 0.45 m/s, 186° | 232 W/m² | - |
| 1778011988 | 28.89° C | 79% | 1012 hPa | 0 mm | 0.45 m/s, 180° | 322 W/m² | - |
| 1778011687 | 28.33° C | 78% | 1012.4 hPa | 0 mm | 0.89 m/s, 145° | 465 W/m² | - |
| 1778011383 | 29.44° C | 77% | 1012.2 hPa | 0 mm | 1.34 m/s, 194° | 159 W/m² | - |
| 1778011078 | 28.89° C | 79% | 1012.2 hPa | 0 mm | 0.45 m/s, 195° | 305 W/m² | - |
| 1778010776 | 28.89° C | 78% | 1012.1 hPa | 0 mm | 2.68 m/s, 174° | 541 W/m² | - |
| 1778010473 | 28.89° C | 78% | 1012.4 hPa | 0 mm | 1.79 m/s, 197° | 332 W/m² | - |
| 1778010170 | 28.89° C | 78% | 1012.3 hPa | 0 mm | 2.24 m/s, 167° | 296 W/m² | - |
| 1778009865 | 28.89° C | 80% | 1012.4 hPa | 0 mm | 0.45 m/s, 134° | 394 W/m² | - |
| 1778009563 | 28.33° C | 81% | 1012.6 hPa | 0 mm | 0.89 m/s, 167° | 442 W/m² | - |
| 1778009261 | 27.78° C | 81% | 1012.4 hPa | 0 mm | 3.13 m/s, 124° | 372 W/m² | - |
| 1778008959 | 27.78° C | 82% | 1012.7 hPa | 0 mm | 0.45 m/s, 153° | 394 W/m² | - |
| 1778008657 | 28.33° C | 82% | 1012.5 hPa | 0 mm | 0.45 m/s, 163° | 234 W/m² | - |
| 1778008355 | 27.78° C | 82% | 1012.4 hPa | 0 mm | 0 m/s | 311 W/m² | - |
| 1778008051 | 28.33° C | 81% | 1012.6 hPa | 0 mm | 1.34 m/s, 187° | 263 W/m² | - |
| 1778007746 | 27.78° C | 82% | 1012.8 hPa | 0 mm | 1.79 m/s, 189° | 417 W/m² | - |
| 1778007442 | 27.78° C | 83% | 1012.8 hPa | 0 mm | 0.45 m/s, 209° | 258 W/m² | - |
| 1778007138 | 27.78° C | 84% | 1012.8 hPa | 0 mm | 0.45 m/s, 202° | 264 W/m² | - |
| 1778006829 | 27.22° C | 84% | 1012.7 hPa | 0 mm | 1.34 m/s, 183° | 299 W/m² | - |
* Rain latest hour (hover to see other rain measurements)
** Current wind speed in m/s (hover to see current wind gust speed)